Orbital elements:
2015 SA57                                                                       
Epoch 2023 Sept. 13.0 TT = JDT 2460200.5                Alexandersen            
M   0.22827              (2000.0)            P               Q                  
n   0.00007987     Peri.  317.54973     +0.14979314     -0.74033333             
a 534.0025078      Node   112.90231     +0.98397174     +0.17648697             
e   0.9707882      Incl.   45.35056     -0.09675547     +0.64865931             
P    12340         H    9.92          G   0.15           U   2                  
Residuals in seconds of arc
141005 F51  0.2+  0.0     160111 F51  0.1-  0.0     201116 F51  0.1+  0.0
141005 F51  0.2+  0.0     160112 F51  0.1+  0.2-    201116 F51  0.1-  0.1+
141005 F51  0.6-  0.2-    160112 F51  0.1-  0.1+    201116 F51  0.1-  0.3+
141005 F51  0.2-  0.1+    160112 F51  0.0   0.0     201224 F51  0.2-  0.1+
150923 F51  0.1-  0.2+    160112 F51  0.1-  0.0     201224 F51  0.0   0.1-
150923 F51  0.0   0.2+    160130 F51  0.1+  0.0     210115 F52  0.4+  0.3+
150923 F51  0.0   0.0     160130 F51  0.1+  0.1+    210209 F51  0.2+  0.1+
150923 F51  0.1-  0.0     160130 F51  0.1+  0.2-    210209 F51  0.1-  0.1-
150924 F51  0.0   0.1+    160130 F51  0.0   0.1-    210213 F51  0.0   0.1-
150924 F51  0.1-  0.1-    160212 F51  0.2-  0.0     210213 F51  0.1-  0.2+
150924 F51  0.1+  0.1+    160212 F51  0.0   0.0     210213 F51  0.1-  0.0
150924 F51  0.1-  0.1+    160212 F51  0.0   0.1+    211108 F51  0.1-  0.0
151116 F51  0.1+  0.0     160212 F51  0.1-  0.1-    211108 F51  0.1+  0.1+
151116 F51  0.1-  0.1-    160302 F51  0.1+  0.4+    211108 F51  0.3-  0.1-
151116 F51  0.2-  0.1-    160302 F51  0.2+  0.1+    211108 F51  0.0   0.3-
151116 F51  0.1+  0.0     160302 F51  0.1+  0.2-    220107 F52  0.4-  0.1+
151213 F51  0.1+  0.1-    160302 F51  0.1+  0.2-    220107 F52  0.0   0.1+
151213 F51  0.0   0.1-    161223 F51  0.0   0.0     220107 F52  0.3-  0.4-
151213 F51  0.1+  0.0     161223 F51  0.2-  0.0     220107 F52  0.0   0.0
151213 F51  0.1+  0.0     170120 F51  0.0   0.0     220205 F52  0.0   0.1-
151214 F51  0.1+  0.0     170120 F51  0.0   0.0     220205 F52  0.0   0.1+
151214 F51  0.2+  0.0     170120 F51  0.0   0.1-    220929 F51  0.1-  0.1+
151214 F51  0.0   0.1-    170120 F51  0.1+  0.0     220929 F51  0.0   0.3+
160109 F51  0.1+  0.0     170127 F51  0.1+  0.0     221028 F51  0.4+  0.1-
160109 F51  0.1-  0.0     170127 F51  0.1+  0.0     221030 F51  0.1+  0.1-
160109 F51  0.0   0.1+    170127 F51  0.0   0.1+    221101 F52  0.2-  0.2-
160109 F51  0.1+  0.1-    170127 F51  0.0   0.0     221101 F52  0.2+  0.0
160111 F51  0.0   0.0     200130 F51  0.0   0.0     221101 F52  0.3+  0.1+
160111 F51  0.0   0.1-    200130 F51  0.1-  0.2-    221201 F51  0.0   0.3+
160111 F51  0.1+  0.1-    200130 F51  0.1-  0.1-    221201 F51  0.1+  0.4-
160111 F51  0.1-  0.3+    201022 F51  0.1+  0.0     230122 F52  0.1-  0.1+
160111 F51  0.0   0.0     201022 F51  0.1-  0.1-    230122 F52  0.0   0.1+
160111 F51  0.1-  0.0     201022 F51  0.0   0.1-    230122 F52  0.0   0.1+
160111 F51  0.0   0.0     201116 F51  0.2+  0.1+    230122 F52  0.1+  0.0

Ephemeris:
2015 SA57                a,e,i = 534.00, 0.97, 45                q = 15.5992
Date    TT    R. A. (2000) Decl.     Delta      r    Elong.  Phase     V
2023 09 11    08 32 02.4 +27 24 01  20.3705 19.6684    44.8     2.1    23.2
...
2023 09 26    08 34 51.4 +27 28 26  20.2092 19.7052    58.6     2.5    23.2
...
2023 10 04    08 36 06.6 +27 32 05  20.1092 19.7249    66.1     2.7    23.2
...
2023 10 10    08 36 55.3 +27 35 25  20.0292 19.7397    71.8     2.8    23.2
2023 10 11    08 37 02.7 +27 36 02  20.0156 19.7422    72.7     2.8    23.2
2023 10 12    08 37 10.0 +27 36 39  20.0018 19.7446    73.7     2.8    23.2
...
2023 10 18    08 37 49.2 +27 40 44  19.9178 19.7594    79.4     2.8    23.2
...
2023 10 26    08 38 29.6 +27 47 00  19.8032 19.7792    87.2     2.9    23.2
...
2023 11 10    08 39 07.6 +28 01 16  19.5881 19.8163   101.9     2.8    23.2

M. P. C. Staff               (C) Copyright 2023 MPC           M.P.E.C. 2023-T162





More information about the Iaude mailing list